Regional Weather Roundup
Issued by NWS

Home | Current Version | Previous Version | Text Only | Print | Product List | Glossary Off
Versions: 1 2 3 4 5 6 7 8 9 10 11 12 13 14 15 16 17 18 19 20 21 22 23 24 25 26 27 28 29 30 31 32 33 34 35 36 37 38 39 40 41 42 43 44 45 46 47 48 49 50

000
ASUS43 KLMK 061502
RWRKY
KENTUCKY REGIONAL WEATHER ROUNDUP
NATIONAL WEATHER SERVICE LOUISVILLE KY
1100 AM EDT FRI MAY 06 2016

NOTE "FAIR" INDICATES FEW OR NO CLOUDS BELOW 12,000 FEET
WITH NO SIGNIFICANT WEATHER AND/OR OBSTRUCTIONS TO VISIBILITY.

KYZ001>023-026-027-061>063-070>075-061600-
WESTERN AND SOUTH CENTRAL KENTUCKY

CITY           SKY/WX    TMP DP  RH WIND       PRES   REMARKS
PADUCAH        SUNNY     66  47  50 N7        30.08R
HENDERSON      SUNNY     63  46  55 W9        30.06S
OWENSBORO      SUNNY     64  47  54 NW9       30.06S
HOPKINSVILLE   SUNNY     62  49  61 VRB5      30.06S
BOWLING GREEN  SUNNY     63  46  54 VRB3      30.04S
GLASGOW        NOT AVBL
$$

KYZ024-025-028>034-038-045-046-053-061600-
NORTH CENTRAL KENTUCKY

CITY           SKY/WX    TMP DP  RH WIND       PRES   REMARKS
LOUISVILLE/SDF MOSUNNY   64  37  36 N12       30.02R
LOUISVILLE/LOU SUNNY     62  39  42 NW10      30.03R
FORT KNOX      SUNNY     62  42  49 N10       30.02R
$$

KYZ035>037-039>044-047>052-055>060-089>105-061600-
NORTHEAST KENTUCKY

CITY           SKY/WX    TMP DP  RH WIND       PRES   REMARKS
LEXINGTON      SUNNY     62  45  53 NW8       29.99S
COVINGTON      MOSUNNY   60  44  55 W3        29.99R
FRANKFORT        N/A     62  44  51 NE6       29.99
$$

KYZ054-064>069-076>088-106>120-061600-
SOUTHEAST KENTUCKY

CITY           SKY/WX    TMP DP  RH WIND       PRES   REMARKS
JACKSON        SUNNY     59  44  57 CALM      29.95R
LONDON         SUNNY     60  40  47 N9        29.97S
SOMERSET       NOT AVBL
MIDDLESBORO    NOT AVBL
MONTICELLO     SUNNY     60  45  57 N16       30.02S
$$





USA.gov is the U.S. government's official web portal to all federal, state and local government web resources and services.